Regional Weather Roundup
Issued by NWS Newport/Morehead, NC

Current Version | Previous Version | Text Only | Print | Product List | Glossary On
Versions: 1 2 3 4 5 6 7 8 9 10 11 12 13 14 15 16 17 18 19 20 21 22 23 24 25 26 27 28 29 30 31 32 33 34 35 36 37 38 39 40 41 42 43 44 45 46 47 48 49 50
000
ASUS42 KMHX 291913
RWRMHX
WEATHER ROUNDUP FOR EASTERN NORTH CAROLINA
NATIONAL WEATHER SERVICE NEWPORT/MOREHEAD CITY NC
300 PM EDT WED MAR 29 2017

NOTE: "FAIR" INDICATES FEW OR NO CLOUDS BELOW 12,000 FEET
WITH NO SIGNIFICANT WEATHER AND/OR OBSTRUCTIONS TO VISIBILITY

NCZ015>017-031-032-045>047-102-103-292000-
NORTH COAST

CITY           SKY/WX    TMP DP  RH WIND       PRES   REMARKS
EDENTON        NOT AVBL
ELIZABETH CITY CLOUDY    60  49  66 NE14      30.08F
KITTY HAWK     NOT AVBL
MANTEO         PTSUNNY   56  47  72 NE14      30.10S

$$

NCZ045>047-081-094-103-104-292000-
CENTRAL COAST

CITY           SKY/WX    TMP DP  RH WIND       PRES   REMARKS
FRISCO         MOSUNNY   58  48  69 NE12G25   30.07F

$$

NCZ095-097-098-100-101-292000-
SOUTHERN COAST

CITY           SKY/WX    TMP DP  RH WIND       PRES   REMARKS
BEAUFORT       SUNNY     68  55  63 N13       30.05F
CEDAR ISLAND   NOT AVBL
JACKSONVILLE   NOT AVBL
PINEY ISLAND   CLEAR    N/A N/A N/A NE14      30.07S
WILMINGTON     CLOUDY    70  58  65 E13       30.03S


$$

NCZ011>013-027>030-043-044-078>080-089-090>093-098-292000-
COASTAL PLAIN

CITY           SKY/WX    TMP DP  RH WIND       PRES   REMARKS
AHOSKIE        NOT AVBL
CLINTON        PTSUNNY   73  57  58 N5        30.05F
ELIZABETHTOWN  MOSUNNY   74  56  53 N5        30.03S
GOLDSBORO      CLOUDY    69  55  59 NE5       30.04F
GREENVILLE     CLOUDY    68  54  60 N7        30.08S
HAVELOCK       NOT AVBL
KENANSVILLE    CLOUDY    70  55  60 NE5       30.06S
KINSTON        CLOUDY    68  54  60 NE7       30.07S
NEW BERN       SUNNY     69  54  58 NE9       30.06F
RICHLANDS      MOSUNNY   70  57  63 N8        30.05F
ROCKY MOUNT    CLOUDY    68  53  58 VRB5      30.07F
WASHINGTON     PTSUNNY   67  53  59 NE5       30.06F
WHITEVILLE     PTSUNNY   76  55  49 NE5       30.00F

$$

AMZ130-135-150-152-154-156-158-170-250-252-270-ANZ085-086-088-633-658-670-292000-
MARINE OBSERVATIONS

STATION/POSITION TIME  TEMP    WIND        PRES    WAVE   SWELL
                       AIR SEA DIR/SP/G            HT/PER HT/PER
                 (UTC) (F)     (DEG/KT/KT) (MB)    (FT/S) (FT/S)
CHESAPEAKE LIGHT NOT AVBL
64 E VA BEACH    1850   50 48   30/ 16/ 19 1018.2    5/ 7   3/ 9
DUCK             1848   50 51   30/ 14/ 16 1018.6
2 E DUCK         1830      51                N/A     4/10   2/11
OREGON INLET     1848           10/ 12/ 16   N/A
13E OREGON INLT  1848      49                N/A     5/ 6   5/ 6
HATTERAS CG      1848   54 61   20/ 20/ 23 1017.9
DIAMOND BUOY     1850   55 73   20/ 23/ 27 1017.5    6/10   3/10
CAPE LOOKOUT     1800   59      40/ 16/ 18 1017.7
BEAUFORT LAB     1848   64 62   10/ 13/ 13 1016.8
30 SE NEW RVR IN 1808   59      60/ 16/ 21 1017.8
30 SE NEW RVR IN 1843      64                N/A     6/10   2/11
27 SE WRIGHTSVLE 1808   62 73   80/ 17/ 23 1016.4
5 SE WRIGHTSVLE  1808   60 59   80/ 12/ 17 1017.5
225 S CAPE HAT   1750   73 73  290/ 10/ 12 1015.0    7/ 9   7/ 9
41 SE CHARLESTON 1750   69 71   20/ 12/ 14 1016.1    5/10   5/10

$$



USA.gov is the U.S. government's official web portal to all federal, state and local government web resources and services.